Vorticity
nan nan nan nan nan nan nan nan nan nan nan nan nan nan nan nan nan nan nan nan nan nan nan nan nan nan nan nan nan nan nan nan nan
nan 5 8 7 7 6 4 4 6 8 7 4 4 3 5 6 5 6 7 8 7 6 5 4 5 5 5 5 7 9 6 5 nan
nan 6 8 7 7 6 4 5 6 6 5 5 4 4 5 6 4 5 5 6 6 7 6 5 5 5 5 7 8 7 5 5 nan
nan 6 7 6 5 6 5 5 6 5 4 4 5 5 6 6 6 6 5 7 6 6 6 5 5 6 7 8 6 4 6 8 nan
nan 7 7 7 7 6 5 5 6 6 5 5 5 5 6 6 5 7 11 9 5 7 5 4 7 6 5 6 7 7 4 7 nan
nan 6 11 9 6 6 6 4 6 8 5 3 4 3 6 6 6 8 10 9 11 6 4 5 6 5 5 6 5 7 10 7 nan
nan 10 11 4 5 4 4 3 6 7 4 3 4 6 7 6 7 8 8 9 9 7 5 5 6 6 5 6 5 8 8 6 nan
nan 8 7 5 4 5 3 4 8 8 6 6 6 8 7 7 8 9 11 14 7 5 5 6 6 5 5 6 8 6 4 4 nan
nan 8 7 6 7 7 5 7 9 7 8 7 6 6 6 8 8 11 16 12 6 4 6 5 6 5 7 9 6 5 4 5 nan
nan 7 7 7 8 7 6 8 8 7 6 7 6 5 6 7 8 10 11 9 7 6 5 5 6 7 8 6 3 5 5 5 nan
nan 5 7 8 8 9 8 8 8 8 7 7 7 7 6 6 9 9 8 8 6 6 7 6 6 6 8 4 4 4 7 6 nan
nan 6 7 7 8 7 6 7 8 8 8 9 8 7 7 7 8 8 9 6 5 8 7 8 6 5 5 4 5 5 6 5 nan
nan 6 7 7 8 6 7 6 7 8 8 7 8 8 8 8 8 8 6 5 8 9 8 9 8 7 3 5 4 5 5 5 nan
nan 6 9 7 7 8 6 7 9 7 8 7 8 8 8 8 10 9 6 5 6 8 9 8 9 9 9 6 4 4 4 8 nan
nan 8 8 6 6 7 8 7 8 10 7 6 6 8 7 8 10 9 8 7 8 8 8 9 8 10 9 5 5 6 5 4 nan
nan 7 8 7 8 8 6 7 7 7 7 4 4 7 8 8 7 10 10 7 9 11 7 6 10 9 9 7 6 6 5 5 nan
nan 7 7 6 7 9 7 4 3 8 8 6 7 8 6 6 8 8 11 9 6 9 9 9 8 9 9 8 9 6 6 6 nan
nan 7 7 7 7 8 8 7 5 4 7 8 9 10 9 7 8 8 8 10 8 7 8 8 7 7 9 10 9 8 8 6 nan
nan 9 9 7 7 9 7 7 7 7 5 3 7 9 13 11 8 9 9 9 10 7 7 9 11 7 8 9 8 9 9 7 nan
nan nan nan nan nan nan nan nan nan nan nan nan nan nan nan nan nan nan nan nan nan nan nan nan nan nan nan nan nan nan nan nan nan
CAPE
158 374 504 361 243 179 64 54 40 25 32 0 0 0 0 0 41 189 226 206 324 338 260 200 113 43 27 27 15 7 5 21 24
70 256 503 381 199 78 40 30 25 81 68 0 0 0 0 0 0 92 196 190 209 240 192 120 55 19 11 18 17 17 40 28 30
51 149 322 170 37 34 30 31 28 57 62 11 0 0 0 0 0 14 100 150 90 179 105 44 26 9 8 8 39 59 31 31 53
33 227 228 76 37 45 46 33 28 58 57 22 9 0 0 0 0 0 33 78 35 126 75 28 9 9 7 51 44 28 20 20 26
72 102 65 62 48 34 53 34 25 67 80 42 17 0 0 0 0 0 4 45 25 119 51 11 2 22 24 21 36 17 36 26 65
9 0 32 50 35 24 55 11 19 47 54 39 2 0 0 0 0 8 51 0 6 100 21 8 8 12 11 26 29 21 18 55 37
2 14 40 50 26 0 44 0 5 7 8 9 0 0 0 3 10 10 23 13 97 68 25 7 8 9 22 18 25 60 52 21 3
16 59 86 50 15 3 2 0 0 0 0 0 0 0 1 32 24 4 25 99 94 63 24 9 4 0 13 21 46 43 28 20 8
9 29 24 0 4 4 0 0 0 0 0 0 0 0 7 42 41 35 35 135 72 56 32 6 1 0 17 58 46 25 15 4 2
7 0 0 0 0 0 0 0 0 0 0 0 0 0 4 7 21 63 33 63 84 30 16 10 7 1 58 44 18 14 28 8 7
0 0 0 0 0 0 0 0 0 0 2 0 0 1 8 0 0 76 44 36 70 66 15 9 8 32 72 49 18 6 15 6 12
0 0 0 0 0 0 0 0 0 0 1 16 12 12 7 10 2 52 67 57 24 51 4 9 15 36 62 31 0 0 0 13 5
0 0 0 0 0 0 0 0 0 0 10 16 12 16 9 19 37 70 61 33 11 33 38 17 32 52 43 27 3 0 0 5 6
0 0 0 0 0 0 0 0 0 0 1 4 1 7 11 13 17 75 62 38 14 26 26 27 48 57 54 34 12 0 0 2 8
0 0 0 0 0 0 0 0 0 0 0 0 0 2 5 3 12 48 63 50 13 21 39 45 33 57 76 39 8 0 1 2 7
0 0 0 0 0 0 0 0 0 2 0 3 0 0 0 3 0 1 8 2 4 4 36 12 15 77 74 50 0 0 0 2 4
0 0 0 0 0 0 0 0 0 0 0 2 12 8 6 0 0 0 5 19 0 0 9 3 14 79 60 18 11 0 0 0 1
0 0 0 0 0 0 0 0 0 1 0 0 6 2 9 3 0 1 0 0 1 0 0 0 2 19 10 24 5 2 1 0 3
0 0 0 0 0 0 0 0 0 0 0 0 0 0 0 3 0 0 0 0 0 0 0 0 0 17 19 10 2 0 4 0 8
0 0 0 0 0 0 0 0 0 0 0 0 0 0 0 0 0 0 0 0 0 0 0 0 0 0 1 0 0 0 3 14 12